Other Public Products
Issued by NWS Grand Forks, ND

Home | Current Version | Previous Version | Text Only | Print | Product List | Glossary Off
Versions: 1 2 3 4 5 6 7 8 9 10 11 12 13 14 15 16 17 18 19 20 21 22 23 24 25 26 27 28 29 30 31 32 33 34 35 36 37 38 39 40 41 42 43 44 45 46 47 48 49 50

000
FPUS83 KFGF 191310
OPUFGF
PRAIRIE TO PINES WEATHER ROUNDUP
NATIONAL WEATHER SERVICE EASTERN NORTH DAKOTA/GRAND FORKS ND
700 AM CST THU JAN 19 2017

 **SATELLITE DATA USED TO AUGMENT SKY COVER AT AUTOMATED STATIONS**
 *****  WEATHER ACROSS EASTERN NORTH DAKOTA  *****

CITY           SKY/WX    TMP DP  RH WIND       PRES   REMARKS
GRAND FORKS    FAIR      22  17  81 S10       29.58F WCI  11
GRAND FORKS AF FAIR      22  20  91 S10       29.57S WCI  11
GRAND CITY NWS NOT AVBL
BUXTON         NOT AVBL
DEVILS LAKE    FAIR      21  16  81 CALM      29.54R
FARGO          FOG       27  26  96 SE9       29.62F VSB 3/4 WCI  18
WAHPETON ARPT  CLOUDY    27  23  86 SE12      29.65F VSB 3/4 WCI  16
$$

 *****  WEATHER ACROSS CENTRAL AND WESTERN NORTH DAKOTA  *****

CITY           SKY/WX    TMP DP  RH WIND       PRES   REMARKS
JAMESTOWN      FAIR      19  16  88 CALM      29.55S
BISMARCK       FAIR      11   6  81 E5        29.54F WCI   3
MINOT          FAIR      23  19  85 SE3       29.48S
MINOT AFB      FAIR      21  18  88 S8        29.47S WCI  11
GARRISON         N/A     16  13  88 CALM      29.50F
WILLISTON      FAIR      19  18  95 S3        29.49S
DICKINSON      FAIR      22  15  75 SW5       29.47F WCI  16
HETTINGER      FAIR       8   5  87 W3        29.51F
$$

 *****  OTHER OBSERVATIONS NORTHEAST NORTH DAKOTA  *****

CITY           SKY/WX    TMP DP  RH WIND       PRES   REMARKS
WALHALLA       NOT AVBL
LANGDON        NOT AVBL
CAVALIER         N/A     23  19  86 SW7       29.54S WCI  15
GRAFTON        FAIR      21  21 100 S14       29.58S WCI   8
CANDO          NOT AVBL
FORT TOTTEN      N/A     25  17  71 S6        29.95S WCI  18
ROLLA            N/A    N/A N/A N/A MISG        N/A
RUGBY            N/A     19  18  93 SE6       29.50F WCI  11
 ***** THE ABOVE OBSERVATIONS ARE NON NWS ARE NOT QUALITY
        CONTROLLED AND MAY MIS-REPORT RAIN FOR SNOW...
$$

 *****  OTHER OBSERVATIONS SOUTHEAST NORTH DAKOTA *****

CITY           SKY/WX    TMP DP  RH WIND       PRES   REMARKS
COOPERSTOWN    FAIR      19  18  93 S12       29.56R WCI   7
VALLEY CITY    FOG       23  23 100 S12       29.57S VSB 1/2 WCI  12
OAKES          NOT AVBL
GWINNER        CLOUDY    19  19 100 SW8       29.60F VSB 3/4 WCI   9
SHEYENNE NWR     N/A     15  12  88 SE5       29.95S WCI   7
BUFFALO        NOT AVBL
WYNDMERE       NOT AVBL
 ***** THE ABOVE OBSERVATIONS ARE NON NWS ARE NOT QUALITY
       CONTROLLED AND MAY MIS-REPORT RAIN FOR SNOW...
$$

  *****  WEATHER ACROSS NORTHERN MINNESOTA  *****

CITY           SKY/WX    TMP DP  RH WIND       PRES   REMARKS
FLAG ISLAND    FAIR      21  19  93 S14       29.58F WCI   8
WARROAD        FAIR      30  27  86 S7        29.59F WCI  23
ROSEAU         FAIR      30  25  80 S17       29.57F WCI  18
HALLOCK        FAIR      25  21  86 S14       29.56S WCI  13
THF RVR FALLS  MOCLDY    25  24  96 SE13      29.60F WCI  14
HALSTAD        NOT AVBL
FOSSTON        FAIR      27  25  93 S3        29.63F
BAUDETTE       FAIR      27  21  78 S8        29.62S WCI  19
WASKISH        FAIR      28  27  93 SE6       29.65F WCI  22
CROOKSTON      FOG       27  27 100 S16       29.61F VSB 1/2 WCI  14
$$
  *****  WEATHER ACROSS CENTRAL AND WEST MINNESOTA  *****

CITY           SKY/WX    TMP DP  RH WIND       PRES   REMARKS
BEMIDJI        FOG       28  28  99 S8        29.66F VSB 1/2 WCI  20
PARK RAPIDS    FOG       31  29  92 S9        29.68R VSB 1/4 WCI  23
WADENA         MIX PCPN  30  30 100 S5        29.69S VSB 1/4
DETROIT LAKES  FOG       32  32 100 S8        29.66F VSB 1/2 WCI  25
MOORHEAD       FOG       28  27  93 S12       29.64F VSB 1/2 WCI  18
FERGUS FALLS   FOG       30  30 100 SE12      29.71F VSB 3/4 WCI  21
ELBOW LAKE     PTSUNNY   29  29 100 E8        29.68S FOG     WCI  21
MORRIS MN      FAIR      28  28 100 SE10      29.69R FOG     WCI  19
STAPLES        MIX PCPN  30  30 100 S9        29.71S VSB 1/2 WCI  22
WHEATON        FAIR      32  32 100 SE10      29.69S WCI  24
$$
  *****  WEATHER ELSEWHERE ACROSS MINNESOTA  *****

CITY           SKY/WX    TMP DP  RH WIND       PRES   REMARKS
DULUTH         FOG       33  33 100 SW12      29.76S VSB 1/4 WCI  24
INTRNTL FALLS  FAIR      23  20  88 S3        29.68R
ELY            CLOUDY    27  27 100 S7        29.73S FOG     WCI  19
CLOQUET        FOG       34  32  93 S7        29.76S VSB 3/4
BRAINERD       FOG       33  33 100 S9        29.73S VSB 1/4
HIBBING        FOG       30  30 100 S6        29.72S VSB 1/4 WCI  24
ALEXANDRIA     FAIR      32  32 100 S10       29.70S WCI  24
SAINT CLOUD    FAIR      27  27 100 SE8       29.77S FOG     WCI  19
MINNEAPOLIS    FAIR      33  29  85 SE6       29.82S
$$

  *****  WEATHER ACROSS SOUTH DAKOTA  *****

CITY           SKY/WX    TMP DP  RH WIND       PRES   REMARKS
SIOUX FALLS    FAIR      36  33  89 S10       29.73F
BROOKINGS      FAIR      32  30  92 S12       29.68F WCI  23
WATERTOWN      FAIR      29  28  96 S12       29.66R WCI  19
HURON          FAIR      33  32  96 SE13      29.63F WCI  24
SISSETON         N/A     36  33  89 S12       29.64F
ABERDEEN       FOG       17  13  84 S5        29.61F VSB 1/4 WCI  10
MITCHELL       FAIR      32  32 100 SE7       29.68R
PIERRE         FAIR       9   6  88 CALM      29.55S
MOBRIDGE       FAIR      11   7  84 SE5       29.51F WCI   3
RAPID CITY     FAIR      26  17  68 NW6       29.51F WCI  19
$$

  *****  SOME WEATHER IN NEARBY STATES *****

CITY           SKY/WX    TMP DP  RH WIND       PRES   REMARKS
GLASGOW MT     FAIR      20  16  84 SE8       29.46S WCI  10
GREAT FALLS MT FAIR      41  25  53 S20       29.45R
CHEYENNE WY    FAIR      36  13  38 NW9       29.60S
SCOTTSBLUFF NE FAIR      21  17  84 E5        29.60S WCI  15
OMAHA NE       FAIR      33  29  85 CALM      29.79S FOG
DES MOINES IA  MOCLDY    32  31  96 E5        29.85F FOG
DAVENPORT IA   FAIR      30  29  96 SE6       29.93F FOG     WCI  24
CHICAGO IL     CLOUDY    33  33 100 S5        29.99F FOG
EAU CLAIRE WI  FAIR      29  29 100 SE5       29.87S FOG     WCI  24
LA CROSSE WI   MOCLDY    35  32  88 S8        29.91F FOG
$$

  *****  SOME NATIONAL WEATHER *****

CITY           SKY/WX    TMP DP  RH WIND       PRES   REMARKS
LA GUARDIA NY  FAIR      43  36  76 NW6       30.04R
RALEIGH NC     FAIR      37  35  92 CALM      30.11R
ATLANTA GA     MOCLDY    56  52  86 CALM      30.04S
NEW ORLEANS LA CLOUDY    70  69  97 S9        29.94R
OKLAHOMA CITY  CLOUDY    47  46  97 S9        29.76F
ALBUQUERQUE NM FAIR      33  29  85 S3        29.92S
SALT LAKE CITY LGT SNOW  26  22  84 N7        29.78F FOG     WCI  18
LOS ANGELES CA RAIN      53  53 100 SE10      29.94F FOG
BOISE ID       CLOUDY    35  33  92 SE9       29.63S
SEATTLE WA     MOCLDY    43  40  89 SE7       29.47S
$$

*** WEATHER ACROSS MANITOBA...SASKATCHEWAN AND ONTARIO ***
                ***ONTARIO***

CITY           SKY/WX    TMP DP  RH WIND       PRES   REMARKS
GERALDTON      CLOUDY    21  19  93 E2        29.79F FOG
THUNDER BAY    FOG       21  21 100 S2        29.81S VSB 3/4
SIOUX LOOKOUT  PTCLDY    27  23  86 S7        29.64F WCI  19
TORONTO        DRIZZLE   34  34 100 SW6       30.04R FOG
BIG TROUT LK   CLOUDY    32  28  86 S14       29.55F WCI  22
PICKLE LAKE    MOCLDY    28  25  86 S16       29.59F WCI  17
DRYDEN         PTCLDY    27  23  86 S10       29.63S WCI  17
KENORA         PTCLDY    28  21  74 S12G17    29.57F WCI  18
$$
                *** MANITOBA***

CITY           SKY/WX    TMP DP  RH WIND       PRES   REMARKS
BRANDON        CLEAR     21  18  86 CALM      29.46S
DAUPHIN        CLEAR     36  30  80 CALM      29.38S
ISLAND LAKE    PTCLDY    28  25  86 SE9       29.38F WCI  20
PILOT MOUND      N/A     21  19  93 S7          N/A  WCI  13
THE PAS        PTCLDY    28  27  93 SW2       29.29R
THOMPSON       PTCLDY    27  25  93 VRB2      29.30F
WINNIPEG       PTCLDY    25  19  80 S18       29.50F WCI  11
LYNN LAKE      CLOUDY    30  30 100 SE5       29.26S
CHURCHILL      LGT SNOW  18  16  93 E20       29.51F DRFTSNOWWCI   1
GILLAM         CLOUDY    30  30 100 S7        29.38F WCI  23
$$
                ***SASKATCHEWAN***

CITY           SKY/WX    TMP DP  RH WIND       PRES   REMARKS
ESTEVAN        PTCLDY    23  19  86 S6        29.44F WCI  16
KINDERSLEY     PTCLDY    32  28  86 S9        29.30F WCI  24
LLOYDMINSTER   CLOUDY    27  23  86 SE5       29.26R WCI  21
PRINCE ALBERT  PTCLDY    16  14  93 CALM      29.32R
REGINA         PTCLDY    25  21  86 SE6       29.41S WCI  18
YORKTON        CLEAR     28  25  86 S10       29.37F WCC1F1C2F2C3F3C4F4C5F5C6F6C7F7C8F8C9F9CaFaCbFbCcFcCdFdCe!


USA.gov is the U.S. government's official web portal to all federal, state and local government web resources and services.